When you browse on this site, cookies collect data to enhance your experience and personalize the content and advertising you see.
Visit our Privacy Policy to learn more. By continuing to use the site, you agree to this use of cookies and data.
  • In Hungary
  • List of Countries
  • For 7 days
  • Water Temperature
  • Satellite Maps
  • Weather Map
  • News
  • Weather Widgets
  • user-avatar
    Login

    Hourly Weather Naftalan

    Today, 21 November, Wednesday

    Time Temperature Precipitation Wind Pressure Humidity
    00:00 +12°C° 0 mm 3 mps 763 mmHg 77%
    01:00 +12°C° 0 mm 3 mps 763 mmHg 70%
    02:00 +12°C° 0 mm 3 mps 763 mmHg 63%
    03:00 +13°C° 0 mm 3 mps 762 mmHg 57%
    04:00 +13°C° 0 mm 3 mps 763 mmHg 55%
    05:00 +13°C° 0 mm 4 mps 763 mmHg 53%
    06:00 +13°C° 0 mm 4 mps 763 mmHg 51%
    07:00 +13°C° 0 mm 5 mps 764 mmHg 52%
    08:00 +14°C° 0 mm 5 mps 764 mmHg 54%
    09:00 +14°C° 0 mm 6 mps 764 mmHg 55%
    10:00 +15°C° 0 mm 6 mps 764 mmHg 55%
    11:00 +15°C° 0 mm 7 mps 764 mmHg 56%
    12:00 +16°C° 0 mm 7 mps 764 mmHg 56%
    13:00 +15°C° 0 mm 7 mps 764 mmHg 59%
    14:00 +15°C° 0 mm 7 mps 764 mmHg 61%
    15:00 +14°C° 0 mm 7 mps 764 mmHg 63%
    16:00 +12°C° 0 mm 7 mps 764 mmHg 67%
    17:00 +12°C° 0 mm 7 mps 765 mmHg 71%
    18:00 +11°C° 0 mm 7 mps 765 mmHg 75%
    19:00 +11°C° 0 mm 7 mps 765 mmHg 76%
    20:00 +11°C° 0 mm 7 mps 765 mmHg 77%
    21:00 +10°C° 0 mm 7 mps 765 mmHg 78%
    22:00 +11°C° 0 mm 7 mps 765 mmHg 78%
    23:00 +11°C° 0 mm 7 mps 765 mmHg 79%

    Tomorrow, 22 November, Thursday

    Time Temperature Precipitation Wind Pressure Humidity
    00:00 +11°C° 0 mm 7 mps 765 mmHg 80%
    01:00 +11°C° 0.1 mm 6 mps 764 mmHg 80%
    02:00 +11°C° 0.1 mm 6 mps 764 mmHg 81%
    03:00 +11°C° 0.1 mm 6 mps 764 mmHg 82%
    04:00 +11°C° 0.1 mm 6 mps 764 mmHg 82%
    05:00 +11°C° 0.1 mm 6 mps 763 mmHg 83%
    06:00 +12°C° 0.1 mm 5 mps 763 mmHg 84%
    07:00 +12°C° 0.2 mm 5 mps 763 mmHg 84%
    08:00 +13°C° 0.2 mm 5 mps 763 mmHg 84%
    09:00 +13°C° 0.2 mm 5 mps 763 mmHg 84%
    10:00 +13°C° 0.3 mm 5 mps 763 mmHg 83%
    11:00 +14°C° 0.3 mm 5 mps 763 mmHg 83%
    12:00 +14°C° 0.3 mm 4 mps 762 mmHg 83%
    13:00 +14°C° 0.2 mm 4 mps 762 mmHg 83%
    14:00 +14°C° 0.2 mm 4 mps 762 mmHg 84%
    15:00 +14°C° 0.2 mm 4 mps 761 mmHg 85%
    16:00 +13°C° 0.2 mm 4 mps 762 mmHg 86%
    17:00 +13°C° 0.2 mm 4 mps 762 mmHg 86%
    18:00 +13°C° 0.2 mm 4 mps 762 mmHg 87%
    19:00 +13°C° 0.3 mm 4 mps 762 mmHg 86%
    20:00 +13°C° 0.3 mm 4 mps 762 mmHg 86%
    21:00 +13°C° 0.3 mm 4 mps 762 mmHg 85%
    22:00 +12°C° 0.1 mm 4 mps 762 mmHg 83%
    23:00 +12°C° 0.1 mm 4 mps 762 mmHg 82%

    Day after tomorrow, 23 November, Friday

    Time Temperature Precipitation Wind Pressure Humidity
    00:00 +12°C° 0.1 mm 4 mps 762 mmHg 80%
    01:00 +11°C° 0.1 mm 4 mps 762 mmHg 80%
    02:00 +10°C° 0.1 mm 5 mps 763 mmHg 80%
    03:00 +10°C° 0.1 mm 5 mps 763 mmHg 80%
    04:00 +10°C° 0 mm 5 mps 763 mmHg 82%
    05:00 +9°C° 0 mm 5 mps 763 mmHg 83%
    06:00 +9°C° 0 mm 5 mps 763 mmHg 84%
    07:00 +10°C° 0 mm 5 mps 764 mmHg 80%
    08:00 +12°C° 0 mm 5 mps 764 mmHg 75%
    09:00 +13°C° 0 mm 5 mps 764 mmHg 71%
    10:00 +13°C° 0 mm 5 mps 764 mmHg 68%
    11:00 +14°C° 0 mm 4 mps 764 mmHg 65%
    12:00 +15°C° 0 mm 4 mps 764 mmHg 62%
    13:00 +15°C° 0 mm 4 mps 764 mmHg 62%
    14:00 +15°C° 0 mm 4 mps 764 mmHg 62%
    15:00 +15°C° 0 mm 5 mps 764 mmHg 62%
    16:00 +14°C° 0 mm 5 mps 765 mmHg 68%
    17:00 +13°C° 0 mm 5 mps 766 mmHg 74%
    18:00 +11°C° 0 mm 6 mps 767 mmHg 81%
    19:00 +11°C° 0.1 mm 6 mps 767 mmHg 80%
    20:00 +11°C° 0.1 mm 7 mps 768 mmHg 79%
    21:00 +11°C° 0.1 mm 8 mps 769 mmHg 78%
    22:00 +10°C° 0.1 mm 8 mps 770 mmHg 78%
    23:00 +10°C° 0.1 mm 9 mps 770 mmHg 77%

    24 November, Saturday

    Time Temperature Precipitation Wind Pressure Humidity
    00:00 +9°C° 0.1 mm 10 mps 771 mmHg 77%
    01:00 +8°C° 0.1 mm 11 mps 771 mmHg 73%
    02:00 +8°C° 0.1 mm 11 mps 772 mmHg 70%
    03:00 +7°C° 0.1 mm 12 mps 772 mmHg 67%
    04:00 +7°C° 0.2 mm 12 mps 773 mmHg 68%
    05:00 +7°C° 0.2 mm 11 mps 774 mmHg 69%
    06:00 +6°C° 0.2 mm 11 mps 775 mmHg 70%
    07:00 +6°C° 0.4 mm 10 mps 776 mmHg 72%
    08:00 +6°C° 0.4 mm 10 mps 777 mmHg 73%
    09:00 +6°C° 0.4 mm 9 mps 778 mmHg 74%
    10:00 +7°C° 0.3 mm 9 mps 778 mmHg 73%
    11:00 +7°C° 0.3 mm 9 mps 778 mmHg 72%
    12:00 +7°C° 0.3 mm 8 mps 778 mmHg 71%
    13:00 +7°C° 0.1 mm 8 mps 778 mmHg 71%
    14:00 +9°C° 0.1 mm 7 mps 778 mmHg 71%
    15:00 +9°C° 0.1 mm 7 mps 778 mmHg 71%
    16:00 +9°C° 0.1 mm 7 mps 778 mmHg 73%
    17:00 +9°C° 0.1 mm 7 mps 778 mmHg 74%
    18:00 +9°C° 0.1 mm 7 mps 778 mmHg 76%
    19:00 +9°C° 0.1 mm 7 mps 777 mmHg 77%
    20:00 +9°C° 0.1 mm 7 mps 777 mmHg 78%
    21:00 +9°C° 0.1 mm 7 mps 777 mmHg 78%
    22:00 +9°C° 0 mm 6 mps 776 mmHg 77%
    23:00 +9°C° 0 mm 6 mps 776 mmHg 76%

    25 November, Sunday

    Time Temperature Precipitation Wind Pressure Humidity
    00:00 +9°C° 0 mm 6 mps 775 mmHg 76%
    01:00 +9°C° 0 mm 5 mps 774 mmHg 75%
    02:00 +9°C° 0 mm 5 mps 774 mmHg 75%
    03:00 +11°C° 0 mm 4 mps 773 mmHg 75%
    04:00 +10°C° 0 mm 4 mps 773 mmHg 77%
    05:00 +10°C° 0 mm 3 mps 772 mmHg 78%
    06:00 +10°C° 0 mm 3 mps 771 mmHg 80%
    07:00 +10°C° 0 mm 3 mps 771 mmHg 79%
    08:00 +10°C° 0 mm 3 mps 771 mmHg 79%
    09:00 +8°C° 0 mm 4 mps 771 mmHg 78%
    10:00 +10°C° 0 mm 4 mps 770 mmHg 74%
    11:00 +11°C° 0 mm 4 mps 769 mmHg 70%
    12:00 +12°C° 0 mm 4 mps 768 mmHg 66%
    13:00 +12°C° 0 mm 3 mps 767 mmHg 65%
    14:00 +13°C° 0 mm 2 mps 767 mmHg 64%
    15:00 +13°C° 0 mm 2 mps 766 mmHg 63%
    16:00 +13°C° 0.3 mm 2 mps 766 mmHg 66%
    17:00 +12°C° 0.3 mm 2 mps 766 mmHg 68%
    18:00 +12°C° 0.3 mm 2 mps 766 mmHg 71%
    19:00 +12°C° 0.2 mm 2 mps 766 mmHg 72%
    20:00 +10°C° 0.2 mm 2 mps 765 mmHg 74%
    21:00 +10°C° 0.2 mm 2 mps 765 mmHg 75%
    22:00 +10°C° 0 mm 2 mps 765 mmHg 76%
    23:00 +11°C° 0 mm 1 mps 764 mmHg 77%

    26 November, Monday

    Time Temperature Precipitation Wind Pressure Humidity
    00:00 +11°C° 0 mm 1 mps 764 mmHg 77%
    01:00 +11°C° 0 mm 1 mps 764 mmHg 78%
    02:00 +10°C° 0 mm 1 mps 764 mmHg 79%
    03:00 +10°C° 0 mm 1 mps 764 mmHg 80%
    04:00 +9°C° 0 mm 2 mps 764 mmHg 80%
    05:00 +9°C° 0 mm 2 mps 764 mmHg 80%
    06:00 +8°C° 0 mm 2 mps 764 mmHg 80%
    07:00 +10°C° 0 mm 2 mps 764 mmHg 75%
    08:00 +12°C° 0 mm 2 mps 764 mmHg 69%
    09:00 +13°C° 0 mm 2 mps 764 mmHg 63%
    10:00 +14°C° 0 mm 2 mps 764 mmHg 58%
    11:00 +15°C° 0 mm 2 mps 763 mmHg 52%
    12:00 +16°C° 0 mm 2 mps 763 mmHg 47%
    13:00 +17°C° 0 mm 2 mps 763 mmHg 46%
    14:00 +17°C° 0 mm 2 mps 763 mmHg 46%
    15:00 +17°C° 0 mm 2 mps 763 mmHg 46%
    16:00 +16°C° 0 mm 2 mps 763 mmHg 53%
    17:00 +15°C° 0 mm 2 mps 764 mmHg 59%
    18:00 +13°C° 0 mm 2 mps 764 mmHg 66%
    19:00 +13°C° 0 mm 2 mps 764 mmHg 71%
    20:00 +13°C° 0 mm 2 mps 765 mmHg 75%
    21:00 +12°C° 0 mm 2 mps 765 mmHg 80%
    22:00 +12°C° 0 mm 2 mps 765 mmHg 82%
    23:00 +12°C° 0 mm 1 mps 765 mmHg 83%
    Show more